STARLINK-11249, 60728

Orbit data source: Space-Track

STARLINK-11249, 60728 is a payload satellite owned by SpaceX/Seattle (US) in LEO that was launched on Wed, 28 Aug 2024 UTC via an FALCON 9 launch vehicle from the Air Force Eastern Test Range (AFETR). Payload-class satellites include a variety of spacecraft equipped with specific instruments for various scientific and technological missions. These include communications satellites like Starlink; space stations such as the ISS; scientific satellites like the Hubble; Earth observation satellites from companies like Planet Labs, Umbra, and HawkEye 360; GPS; miniature CubeSats for education and research; and military/defense satellites.

Loading next visibility...
Identifier
60728, 2024-152J
Orbit
LEO
Last TLE update
22 hours ago
Origin
Manufacturer
SpaceX/Seattle
Mission
Operational Commercial Communications
Bus & Motor
STARLINK V2M, Unknown motor
Mass
730 kg wet, ~700 kg dry
Launch date (UTC)
2024-08-28 (8 months ago)
Launch vehicle
FALCON 9
Launch site
Air Force Eastern Test Range (AFETR)
Object type
Payload
Rocket body
Debris
Shape & HBR
Box + 2 Pan, 29 m
Radar Cross Section
36.964 m², Large (>1 m²)

Expand to show TLE details & history

TLE from 22 hours ago
0 STARLINK-11249
1 60728U 24152J   25114.74910243  .00000648  00000-0  10205-4 0  9990
2 60728  53.1561 248.3849 0001046  91.4931 268.6207 15.69718055 38742
Epoch: 2025-04-24T17:58Z
Definitive object data (Epoch: 2025-04-24T17:58:42.449Z)
Latitude
-0.00002°
Longitude
125.69194°
Altitude
360.635 km
Speed
7.694 km/s
True Right ascension
16h 33m 32s
True Declination
0° 00' 00"
Sunlit
Object was in full shadow at TLE epoch
Visualization TLE readout
Latitude
-51.97498°
Longitude
13.40075°
Altitude
378.385 km
Speed
7.682 km/s
Apparent Right ascension
10h 30m 36s
Apparent Declination
-47° 40' 57"
Sunlit
Object is in daylight
Visualization observer readout
Local Sidereal Time
23:43:31
Azimuth
126.671° SE
Elevation
-74.777°
Doppler factor
1
Orbital elements
Apogee altitude
360.67 km
Perigee altitude
359.26 km
Semi-major axis
6,738.102 km
Eccentricity
0.0001046
Inclination
53.1561°
RAAN
248.3849°
Arg. of periapsis
91.4931°
True anomaly
268.60872°
Mean anomaly
268.6207°
Eccentric anomaly
268.61471°
Mean motion
3.92407 °/min
BSTAR
0.000010205
Orbital period
91.74 mins
Loading maneuver chart data...
Loading SW <> Apogee altitude chart data...
Loading historical data...
Loading historical data...
Loading historical data...
Loading historical data...
Loading historical data...
Loading historical data...
Loading historical data...

STARLINK-11249 Visibility forecast

Observer location: undefined°, undefined°

Span
Click to sort rows by Start time (UTC) header in descending order
Start Az.
Max El. time (UTC)
Max El. Az.
Max El.
End time (UTC)
End Az.
4 mins2025-04-26 11:26:14.537Z242.571° WSW2025-04-26 11:28:14.537Z336.107° NNW41.91°2025-04-26 11:30:14.537Z41.714° NE
|